Regional Weather Roundup
Issued by NWS Newport/Morehead, NC

Current Version | Previous Version | Text Only | Print | Product List | Glossary On
Versions: 1 2 3 4 5 6 7 8 9 10 11 12 13 14 15 16 17 18 19 20 21 22 23 24 25 26 27 28 29 30 31 32 33 34 35 36 37 38 39 40 41 42 43 44 45 46 47 48 49 50
000 ASUS42 KMHX 311910 RWRMHX WEATHER ROUNDUP FOR EASTERN NORTH CAROLINA NATIONAL WEATHER SERVICE NEWPORT/MOREHEAD CITY NC 300 PM EDT THU JUL 31 2014 NOTE: "FAIR" INDICATES FEW OR NO CLOUDS BELOW 12,000 FEET WITH NO SIGNIFICANT WEATHER AND/OR OBSTRUCTIONS TO VISIBILITY NCZ015>017-031-032-045>047-102-103-312000- NORTH COAST CITY SKY/WX TMP DP RH WIND PRES REMARKS EDENTON PTSUNNY 82 64 56 E3 30.14S ELIZABETH CITY MOSUNNY 82 63 52 SE6 30.14S KITTY HAWK MOCLDY 81 60 48 E5 30.14S MANTEO NOT AVBL $$ NCZ045>047-081-094-103-104-312000- CENTRAL COAST CITY SKY/WX TMP DP RH WIND PRES REMARKS FRISCO NOT AVBL SWANQUARTER N/A 84 N/A N/A SE6G13 30.09S $$ NCZ095-097-098-100-101-312000- SOUTHERN COAST CITY SKY/WX TMP DP RH WIND PRES REMARKS BEAUFORT MOSUNNY 85 66 53 E10 30.12F CEDAR ISLAND N/A 82 N/A N/A E12 30.18S JACKSONVILLE PTSUNNY 85 67 54 E12 30.11S NEWPORT NOT AVBL PINEY ISLAND MOCLDY 83 65 54 E10 30.13S WILMINGTON PTSUNNY 84 68 58 E16 30.11S $$ NCZ011>013-027>030-043-044-078>080-089-090>093-098-312000- COASTAL PLAIN CITY SKY/WX TMP DP RH WIND PRES REMARKS AHOSKIE CLOUDY 81 65 58 SE6 30.14S CLINTON PTSUNNY 86 68 55 E7 30.11F ELIZABETHTOWN PTSUNNY 85 64 49 E6 30.10S GOLDSBORO CLOUDY 84 71 65 SE8 30.10F GREENVILLE PTSUNNY 84 63 48 SE5 30.14S HAVELOCK PTSUNNY 84 66 54 NE10 30.13S KENANSVILLE PTSUNNY 84 62 47 SE6 30.12F KINSTON CLOUDY 84 66 54 SE10 30.13S NEW BERN PTSUNNY 85 64 49 E9 30.13F RICHLANDS PTSUNNY 84 66 54 SE5 30.12S ROANOKE RAPIDS NOT AVBL ROCKY MOUNT PTSUNNY 83 66 56 E6 30.13F WASHINGTON PTSUNNY 82 64 53 SE5 30.14R WHITEVILLE CLOUDY 84 66 54 E8 30.09S $$ AMZ130-135-150-152-154-156-158-170-250-252-270-ANZ085-086-088-633-658-670-312000- MARINE OBSERVATIONS STATION/POSITION TIME TEMP WIND PRES WAVE SWELL AIR SEA DIR/SP/G HT/PER HT/PER (UTC) (F) (DEG/KT/KT) (MB) (FT/S) (FT/S) CHESAPEAKE LIGHT NOT AVBL BUOY 44014 1900 78 80 20/ 4/ 6 1020.9 3/ 8 3/ 8 DUCK 1900 84 77 100/ 5/ 5 1020.2 2E DUCK 1900 N/A 2/ 8 OREGON INLET 1900 79 78 40/ 7/ 8 1020.8 BUOY 44095 1900 79 N/A 3/ 8 20E OREGON INLET NOT AVBL HATTERAS CG 1900 81 80 60/ 7/ 10 1021.0 DIAMOND BUOY 1800 VRB 12/ 14 1020.1 3/ 7 3/ 7 CAPE LOOKOUT 1800 80 70/ 11/ 13 1020.2 BEAUFORT LAB 1900 82 81 120/ 9/ 13 1019.6 30 SE NEW RIVER 1900 81 81 80/ 14/ 16 1019.9 4/ 7 2/ 7 5 SE WRIGHTSVILL 1800 78 81 80/ 14/ 16 N/A BUOY 41002 1755 79 81 180/ 8/ 10 1018.9 4/ 6 3/ 6 BUOY 41004 1900 78 83 100/ 17/ 21 1016.4 4/ 4 2/ 8 $$

USA.gov is the U.S. government's official web portal to all federal, state and local government web resources and services.